FW1298 Weather Reports


Display with metric or nautical units.
time (UTC)temp
F
wind
direction
speed
MPH
gust
MPH
rain 1hr
in
rain 24hr
in
rain mn
in
humidity
%
barometer
mb
20200402065554 53 13 3.0 4.0 0.00 0.00 0.00 85 1015.3
20200402065104 53 13 3.0 5.0 0.00 0.00 0.00 85 1015.1
20200402064855 53 13 3.0 5.0 0.00 0.00 0.00 85 1015.2
20200402064059 53 14 3.0 5.0 0.00 0.00 0.00 84 1015.3
20200402063555 53 13 3.0 4.0 0.00 0.00 0.00 83 1015.3
20200402063053 54 12 2.0 4.0 0.00 0.00 0.00 83 1015.3
20200402062553 54 12 2.0 5.0 0.00 0.00 0.00 83 1015.5
20200402062050 54 12 3.0 5.0 0.00 0.00 0.00 82 1015.4
20200402061603 54 13 2.0 4.0 0.00 0.00 0.00 82 1015.6
20200402061050 54 13 3.0 5.0 0.00 0.00 0.00 82 1015.5
20200402060550 54 13 4.0 7.0 0.00 0.00 0.00 81 1015.4
20200402060052 55 13 4.0 7.0 0.00 0.00 0.00 81 1015.4
20200402055550 55 5 4.0 8.0 0.00 0.00 0.00 80 1015.6
20200402055104 55 0 5.0 9.0 0.00 0.00 0.00 80 1015.5
20200402054551 55 14 5.0 9.0 0.00 0.00 0.00 80 1015.5
20200402054052 55 355 3.0 8.0 0.00 0.00 0.00 81 1015.6
20200402053551 55 52 2.0 4.0 0.00 0.00 0.00 82 1015.7
20200402053049 55 52 2.0 4.0 0.00 0.00 0.00 81 1015.7
20200402052549 55 53 2.0 4.0 0.00 0.00 0.00 80 1015.6
20200402052049 55 339 2.0 5.0 0.00 0.00 0.00 79 1015.5
20200402051548 55 339 3.0 5.0 0.00 0.00 0.00 79 1015.4
20200402051049 55 340 3.0 5.0 0.00 0.00 0.00 79 1015.5
20200402050549 55 340 3.0 5.0 0.00 0.00 0.00 80 1015.5
20200402050049 55 340 3.0 5.0 0.00 0.00 0.00 81 1015.5
20200402045558 55 340 3.0 5.0 0.00 0.00 0.00 81 1015.3
20200402045058 56 0 1.0 4.0 0.00 0.00 0.00 80 1015.1
20200402044553 56 61 0.0 2.0 0.00 0.00 0.00 80 1015.2
20200402044054 56 60 0.0 0.0 0.00 0.00 0.00 80 1015.1
20200402043551 57 61 0.0 0.0 0.00 0.00 0.00 79 1015.0
20200402043049 57 61 0.0 0.0 0.00 0.00 0.00 79 1014.9
20200402042549 57 61 0.0 0.0 0.00 0.00 0.00 77 1014.9
20200402042044 57 60 0.0 0.0 0.00 0.00 0.00 76 1014.9
20200402041545 57 61 0.0 0.0 0.00 0.00 0.00 76 1014.9
20200402041043 57 60 0.0 0.0 0.00 0.00 0.00 75 1014.9
20200402040545 57 60 0.0 0.0 0.00 0.00 0.00 75 1014.7
20200402040044 58 60 0.0 0.0 0.00 0.00 0.00 75 1014.9
20200402035544 58 60 0.0 0.0 0.00 0.00 0.00 74 1015.0
20200402035044 58 60 0.0 0.0 0.00 0.00 0.00 74 1015.0
20200402034542 58 60 0.0 0.0 0.00 0.00 0.00 74 1015.0
20200402034042 58 60 0.0 0.0 0.00 0.00 0.00 73 1015.0
20200402033542 58 60 0.0 0.0 0.00 0.00 0.00 73 1015.1
20200402033042 58 60 0.0 0.0 0.00 0.00 0.00 72 1015.0
20200402032542 58 60 0.0 0.0 0.00 0.00 0.00 73 1015.0
20200402032041 58 60 0.0 0.0 0.00 0.00 0.00 72 1015.0
20200402031541 58 61 0.0 0.0 0.00 0.00 0.00 72 1015.1
20200402031040 58 61 0.0 0.0 0.00 0.00 0.00 72 1015.1
20200402030542 58 61 0.0 0.0 0.00 0.00 0.00 70 1014.9
20200402030041 58 60 0.0 0.0 0.00 0.00 0.00 70 1014.9
20200402025541 58 60 0.0 0.0 0.00 0.00 0.00 69 1014.8
20200402025042 58 60 0.0 0.0 0.00 0.00 0.00 68 1014.7
20200402024541 58 60 0.0 0.0 0.00 0.00 0.00 68 1014.8
20200402024042 58 60 0.0 0.0 0.00 0.00 0.00 68 1014.8
20200402023540 58 60 0.0 0.0 0.00 0.00 0.00 68 1014.8
20200402023041 58 60 0.0 1.0 0.00 0.00 0.00 68 1014.7
20200402022540 58 61 0.0 2.0 0.00 0.00 0.00 69 1014.6
20200402022040 58 61 0.0 2.0 0.00 0.00 0.00 68 1014.6
20200402021541 59 60 0.0 2.0 0.00 0.00 0.00 68 1014.6
20200402021041 59 61 0.0 1.0 0.00 0.00 0.00 67 1014.5
20200402020540 59 61 0.0 2.0 0.00 0.00 0.00 68 1014.5
20200402020041 59 60 0.0 2.0 0.00 0.00 0.00 68 1014.5
20200402015541 59 61 0.0 2.0 0.00 0.00 0.00 67 1014.4
20200402015042 59 61 0.0 2.0 0.00 0.00 0.00 68 1014.3
20200402014542 59 61 1.0 2.0 0.00 0.00 0.00 67 1014.2
20200402014040 59 60 1.0 3.0 0.00 0.00 0.00 67 1014.2
20200402013541 59 60 2.0 3.0 0.00 0.00 0.00 67 1014.1
20200402013042 59 60 2.0 4.0 0.00 0.00 0.00 67 1014.1
20200402012543 59 61 2.0 4.0 0.00 0.00 0.00 66 1014.1
20200402012040 59 60 2.0 4.0 0.00 0.00 0.00 66 1014.0
20200402011540 60 61 2.0 4.0 0.00 0.00 0.00 65 1013.8
20200402011042 60 60 2.0 4.0 0.00 0.00 0.00 64 1013.5
20200402010541 60 57 3.0 5.0 0.00 0.00 0.00 63 1013.5
20200402010051 60 57 3.0 7.0 0.00 0.00 0.00 64 1013.4
20200402005546 60 57 3.0 7.0 0.00 0.00 0.00 62 1013.5
20200402005043 61 355 2.0 4.0 0.00 0.00 0.00 61 1013.4
20200402004539 61 345 2.0 3.0 0.00 0.00 0.00 61 1013.3
20200402004039 61 345 1.0 3.0 0.00 0.00 0.00 58 1013.3
20200402003540 61 345 1.0 2.0 0.00 0.00 0.00 58 1013.3
20200402003037 61 345 1.0 2.0 0.00 0.00 0.00 58 1013.1
20200402002536 61 345 1.0 2.0 0.00 0.00 0.00 57 1013.0
20200402002037 61 345 1.0 3.0 0.00 0.00 0.00 57 1012.9
20200402001537 61 345 1.0 3.0 0.00 0.00 0.00 57 1012.9
20200402001035 61 345 2.0 4.0 0.00 0.00 0.00 56 1012.9
20200402000532 62 345 2.0 4.0 0.00 0.00 0.00 56 1012.8
20200402000238 62 345 2.0 5.0 0.00 0.00 0.00 56 1012.6
20200401235533 62 345 3.0 5.0 0.00 0.00 0.00 56 1012.4
20200401235030 62 350 3.0 5.0 0.00 0.00 0.00 55 1012.3
20200401234530 62 5 2.0 5.0 0.00 0.00 0.00 55 1012.3
20200401234030 62 12 3.0 9.0 0.00 0.00 0.00 55 1012.3
20200401233530 62 28 3.0 9.0 0.00 0.00 0.00 55 1012.2
20200401233030 62 23 4.0 8.0 0.00 0.00 0.00 54 1012.3
20200401232529 62 0 5.0 9.0 0.00 0.00 0.00 54 1012.1
20200401232026 62 0 5.0 9.0 0.00 0.00 0.00 54 1011.9
20200401231528 62 22 5.0 9.0 0.00 0.00 0.00 55 1011.9
20200401231027 62 20 5.0 9.0 0.00 0.00 0.00 55 1011.7
20200401230526 62 22 5.0 9.0 0.00 0.00 0.00 55 1011.8
20200401225526 62 19 4.0 6.0 0.00 0.00 0.00 55 1011.7
20200401225027 62 24 5.0 10.0 0.00 0.00 0.00 55 1011.6
20200401224526 62 13 6.0 10.0 0.00 0.00 0.00 55 1011.5
20200401224026 62 0 5.0 10.0 0.00 0.00 0.00 54 1011.5
20200401223527 63 13 5.0 10.0 0.00 0.00 0.00 53 1011.5
20200401223037 63 5 6.0 11.0 0.00 0.00 0.00 53 1011.3
20200401222534 63 12 6.0 11.0 0.00 0.00 0.00 52 1011.3
20200401222034 63 327 5.0 9.0 0.00 0.00 0.00 52 1011.3
20200401221532 63 346 5.0 10.0 0.00 0.00 0.00 51 1011.3
20200401221031 63 347 5.0 10.0 0.00 0.00 0.00 52 1011.3
20200401220529 63 335 5.0 11.0 0.00 0.00 0.00 51 1011.2
20200401220027 63 296 6.0 12.0 0.00 0.00 0.00 51 1011.2
20200401215531 63 288 7.0 12.0 0.00 0.00 0.00 51 1011.1
20200401215027 64 25 8.0 15.0 0.00 0.00 0.00 50 1011.2
20200401214528 63 355 8.0 15.0 0.00 0.00 0.00 50 1011.3
20200401214025 64 301 7.0 12.0 0.00 0.00 0.00 50 1011.1
20200401213531 64 328 7.0 14.0 0.00 0.00 0.00 49 1010.9
20200401213025 64 290 5.0 14.0 0.00 0.00 0.00 49 1011.0
20200401212526 63 336 5.0 11.0 0.00 0.04 0.00 51 1011.0
20200401212024 63 303 8.0 14.0 0.00 0.04 0.00 51 1011.0
20200401211525 63 316 7.0 14.0 0.00 0.04 0.00 50 1011.0
20200401211024 64 0 6.0 12.0 0.00 0.04 0.00 51 1011.0
20200401210525 63 323 7.0 14.0 0.00 0.04 0.00 52 1011.0
20200401210024 62 308 8.0 15.0 0.00 0.04 0.00 51 1011.0
20200401205522 63 340 5.0 15.0 0.00 0.04 0.00 51 1011.0
20200401205021 63 336 4.0 10.0 0.00 0.04 0.00 52 1011.0
20200401204523 62 333 6.0 11.0 0.00 0.04 0.00 51 1011.0
20200401204021 62 5 8.0 13.0 0.00 0.04 0.00 52 1010.9
20200401203522 63 19 8.0 14.0 0.00 0.04 0.00 51 1011.1
20200401203024 63 285 8.0 14.0 0.00 0.04 0.00 50 1011.0
20200401202523 62 9 9.0 14.0 0.00 0.04 0.00 51 1010.9
20200401202022 62 351 10.0 19.0 0.00 0.04 0.00 51 1010.9
20200401201523 62 340 10.0 19.0 0.00 0.04 0.00 52 1010.9
20200401201020 62 338 6.0 14.0 0.00 0.04 0.00 51 1010.9
20200401200520 62 12 6.0 12.0 0.00 0.04 0.00 51 1010.9
20200401200035 62 332 8.0 14.0 0.00 0.05 0.00 50 1010.8
20200401195520 62 45 8.0 17.0 0.00 0.05 0.00 52 1010.7
20200401195021 62 22 9.0 17.0 0.00 0.05 0.00 52 1010.9
20200401194520 63 355 7.0 17.0 0.00 0.05 0.00 51 1011.0
20200401194020 64 10 6.0 14.0 0.00 0.05 0.00 51 1011.0
20200401193521 62 345 9.0 16.0 0.00 0.05 0.00 53 1010.8
20200401193021 62 11 8.0 16.0 0.00 0.05 0.00 54 1010.8
20200401192517 62 32 8.0 14.0 0.00 0.05 0.00 53 1010.8
20200401192018 62 355 8.0 14.0 0.00 0.05 0.00 52 1010.7
20200401191519 64 9 6.0 14.0 0.00 0.05 0.00 51 1010.7
20200401191017 64 317 6.0 12.0 0.00 0.05 0.00 51 1010.8
20200401190518 62 26 7.0 13.0 0.00 0.05 0.00 52 1010.8
20200401190017 62 350 8.0 15.0 0.00 0.05 0.00 52 1010.8
20200401185519 61 17 9.0 15.0 0.00 0.05 0.00 54 1011.0
20200401185018 61 5 11.0 18.0 0.00 0.05 0.00 53 1010.9
20200401184517 60 348 11.0 19.0 0.00 0.05 0.00 54 1011.0
20200401184019 61 15 10.0 19.0 0.00 0.05 0.00 54 1010.9
20200401183517 62 336 8.0 17.0 0.00 0.05 0.00 53 1011.0
20200401183017 62 340 9.0 18.0 0.00 0.05 0.00 53 1011.1
20200401182518 61 318 10.0 18.0 0.00 0.05 0.00 55 1011.1
20200401182019 60 11 10.0 17.0 0.00 0.05 0.00 55 1011.1
20200401181516 60 5 10.0 18.0 0.00 0.05 0.00 54 1011.2
20200401181017 61 317 9.0 18.0 0.00 0.05 0.00 55 1011.2
20200401180515 61 325 7.0 16.0 0.00 0.05 0.00 54 1011.3
20200401180016 61 17 7.0 17.0 0.00 0.05 0.00 55 1011.3
20200401175515 60 347 7.0 17.0 0.00 0.05 0.00 55 1011.4
20200401175016 60 302 8.0 16.0 0.00 0.05 0.00 54 1011.3
20200401174515 60 298 9.0 17.0 0.00 0.05 0.00 56 1011.3
20200401174015 59 49 10.0 17.0 0.00 0.05 0.00 58 1011.3
20200401173517 60 345 9.0 16.0 0.00 0.05 0.00 57 1011.3
20200401173017 60 330 9.0 16.0 0.00 0.05 0.00 58 1011.3
20200401172515 59 10 9.0 20.0 0.00 0.05 0.00 58 1011.5
20200401172015 59 37 7.0 20.0 0.00 0.05 0.00 58 1011.3
20200401171515 58 19 10.0 17.0 0.00 0.05 0.00 60 1011.3
20200401171015 58 33 12.0 17.0 0.00 0.05 0.00 60 1011.6
20200401170517 59 18 8.0 16.0 0.00 0.05 0.00 60 1011.4
20200401170017 59 32 7.0 18.0 0.00 0.05 0.00 60 1011.6
20200401165515 58 15 9.0 18.0 0.00 0.05 0.00 60 1011.6
20200401165015 59 5 9.0 17.0 0.00 0.05 0.00 59 1011.5
20200401164515 58 33 10.0 19.0 0.00 0.05 0.00 61 1011.6
20200401164015 58 348 11.0 19.0 0.00 0.05 0.00 61 1011.7
20200401163517 58 63 9.0 18.0 0.00 0.05 0.00 61 1011.6
20200401163016 58 29 9.0 17.0 0.00 0.05 0.00 61 1011.6
20200401162515 58 62 8.0 17.0 0.00 0.05 0.00 60 1011.6
20200401162016 58 355 9.0 17.0 0.00 0.05 0.00 62 1011.6
20200401161515 58 348 10.0 19.0 0.00 0.05 0.00 61 1011.6
20200401161014 57 26 10.0 19.0 0.00 0.05 0.00 61 1011.7
20200401160515 58 27 10.0 17.0 0.00 0.05 0.00 62 1011.8
20200401160014 57 342 11.0 16.0 0.00 0.05 0.00 63 1011.8
20200401155526 56 335 11.0 19.0 0.00 0.05 0.00 63 1011.6
20200401155025 57 42 8.0 19.0 0.00 0.05 0.00 62 1011.6
20200401154525 57 32 9.0 15.0 0.00 0.05 0.00 64 1011.6
20200401154023 57 31 11.0 18.0 0.00 0.05 0.00 64 1011.7
20200401153525 56 27 11.0 18.0 0.00 0.05 0.00 65 1011.8
20200401153020 56 12 11.0 18.0 0.00 0.05 0.00 66 1011.7
20200401152523 56 17 10.0 18.0 0.00 0.05 0.00 64 1011.7
20200401152020 56 17 9.0 17.0 0.00 0.05 0.00 64 1011.6
20200401151521 56 17 8.0 17.0 0.00 0.05 0.00 67 1011.5
20200401151019 56 342 8.0 18.0 0.00 0.05 0.00 67 1011.5
20200401150519 56 24 10.0 19.0 0.00 0.05 0.00 68 1011.4
20200401150015 55 13 11.0 19.0 0.00 0.05 0.00 69 1011.4
20200401145516 55 5 9.0 19.0 0.00 0.05 0.00 68 1011.4
20200401145014 55 9 9.0 17.0 0.00 0.05 0.00 69 1011.3
20200401144512 55 331 11.0 18.0 0.00 0.05 0.00 70 1011.3
20200401144009 54 32 10.0 18.0 0.00 0.05 0.00 70 1011.2
20200401143509 54 336 9.0 17.0 0.00 0.05 0.00 69 1011.1
20200401143009 55 26 8.0 12.0 0.00 0.05 0.00 69 1011.0
20200401142511 54 344 8.0 15.0 0.00 0.05 0.00 70 1011.0
20200401142009 53 355 11.0 18.0 0.00 0.05 0.00 71 1010.9
20200401141509 53 36 11.0 18.0 0.00 0.05 0.00 72 1011.0
20200401141010 53 308 10.0 18.0 0.00 0.05 0.00 71 1011.0
20200401140509 53 5 9.0 15.0 0.00 0.05 0.00 72 1010.8
20200401140011 53 323 8.0 17.0 0.00 0.05 0.00 72 1010.9
20200401135510 53 313 9.0 17.0 0.00 0.05 0.00 73 1010.9
20200401135010 53 327 8.0 15.0 0.00 0.05 0.00 74 1010.9
20200401134510 53 328 7.0 13.0 0.00 0.05 0.00 74 1010.9
20200401134008 53 0 7.0 13.0 0.00 0.05 0.00 75 1010.9
20200401133509 52 355 7.0 14.0 0.00 0.05 0.00 76 1010.9
20200401133007 52 12 8.0 14.0 0.00 0.05 0.00 78 1010.9
20200401132508 51 346 8.0 13.0 0.00 0.05 0.00 77 1010.8
20200401132008 51 309 8.0 12.0 0.00 0.05 0.00 78 1010.8
20200401131509 51 346 7.0 12.0 0.00 0.05 0.00 78 1010.7
20200401131008 51 0 7.0 14.0 0.00 0.05 0.00 79 1010.8
20200401130509 51 322 9.0 15.0 0.00 0.05 0.00 78 1010.7
20200401130007 51 324 8.0 15.0 0.00 0.05 0.00 78 1010.8
20200401125511 51 340 8.0 15.0 0.00 0.05 0.00 78 1010.7
20200401125007 51 306 8.0 15.0 0.00 0.05 0.00 78 1010.7
20200401124509 51 338 7.0 13.0 0.00 0.05 0.00 78 1010.5
20200401124008 51 20 9.0 15.0 0.00 0.05 0.00 79 1010.5
20200401123509 50 0 8.0 15.0 0.00 0.05 0.00 79 1010.5
20200401123007 50 322 7.0 15.0 0.00 0.05 0.00 78 1010.3
20200401122511 50 340 8.0 14.0 0.00 0.05 0.00 79 1010.3
20200401122007 50 325 9.0 15.0 0.00 0.05 0.00 79 1010.2
20200401121507 50 338 9.0 15.0 0.00 0.05 0.00 80 1010.2
20200401121009 50 348 8.0 14.0 0.00 0.05 0.00 79 1010.1
20200401120508 50 290 6.0 14.0 0.00 0.05 0.00 79 1010.1
20200401120007 50 316 6.0 13.0 0.00 0.05 0.00 79 1010.0
20200401115530 50 319 8.0 14.0 0.00 0.05 0.00 79 1010.0
20200401115005 50 336 10.0 17.0 0.00 0.05 0.00 78 1009.8
20200401114507 50 340 9.0 17.0 0.00 0.05 0.00 78 1009.7
20200401114006 50 319 7.0 16.0 0.00 0.05 0.00 78 1009.7
20200401113505 50 313 9.0 18.0 0.00 0.05 0.00 79 1009.5
20200401113005 50 355 10.0 18.0 0.00 0.05 0.00 78 1009.5
20200401112507 50 311 9.0 15.0 0.00 0.05 0.00 79 1009.3
20200401112003 50 300 10.0 19.0 0.00 0.05 0.00 79 1009.3
20200401111518 50 326 9.0 19.0 0.00 0.05 0.00 79 1009.1
20200401111014 50 286 8.0 15.0 0.00 0.05 0.00 79 1009.0
20200401110517 50 5 8.0 15.0 0.00 0.05 0.00 79 1008.9
20200401110014 51 329 7.0 14.0 0.00 0.05 0.00 79 1008.8
20200401105517 51 302 7.0 15.0 0.00 0.05 0.00 79 1008.7
20200401105014 51 329 10.0 15.0 0.00 0.05 0.00 80 1008.5
20200401104513 51 319 9.0 16.0 0.00 0.05 0.00 79 1008.5
20200401104013 51 334 8.0 16.0 0.00 0.05 0.00 80 1008.3
20200401103512 51 338 8.0 15.0 0.00 0.05 0.00 79 1008.2
20200401103010 51 323 8.0 15.0 0.00 0.05 0.00 79 1008.1
20200401102512 52 319 8.0 15.0 0.00 0.05 0.00 79 1007.8
20200401102009 52 300 8.0 15.0 0.00 0.05 0.00 79 1007.7
20200401101511 52 312 8.0 14.0 0.00 0.05 0.00 79 1007.8
20200401101009 52 306 7.0 14.0 0.00 0.05 0.00 80 1007.7
20200401100509 53 330 7.0 13.0 0.00 0.05 0.00 80 1007.7
20200401100006 53 350 8.0 15.0 0.00 0.05 0.00 80 1007.4
20200401095516 53 314 8.0 15.0 0.00 0.05 0.00 80 1007.5
20200401095008 53 304 8.0 17.0 0.00 0.05 0.00 79 1007.4
20200401094511 53 323 10.0 17.0 0.00 0.05 0.00 79 1007.4
20200401094008 53 298 8.0 16.0 0.00 0.05 0.00 79 1007.4
20200401093513 53 331 7.0 14.0 0.00 0.05 0.00 80 1007.3
20200401093006 53 317 8.0 17.0 0.00 0.05 0.00 80 1007.2
20200401092509 53 311 10.0 17.0 0.00 0.05 0.00 81 1007.1
20200401092009 53 335 9.0 15.0 0.00 0.05 0.00 81 1007.0
20200401091008 53 309 9.0 17.0 0.00 0.05 0.00 82 1006.8
20200401090512 53 327 8.0 17.0 0.00 0.05 0.00 81 1006.9
20200401090008 53 338 9.0 19.0 0.00 0.05 0.00 82 1006.8
20200401085515 53 323 9.0 19.0 0.00 0.05 0.00 82 1006.8
20200401085007 53 335 8.0 15.0 0.00 0.05 0.00 81 1006.6
20200401084511 54 341 8.0 17.0 0.00 0.05 0.00 81 1006.7
20200401084010 54 285 8.0 17.0 0.00 0.05 0.00 82 1006.7
20200401083512 54 328 8.0 16.0 0.00 0.05 0.00 81 1006.6
20200401083011 54 340 8.0 14.0 0.00 0.05 0.00 82 1006.6
20200401082522 54 350 10.0 18.0 0.00 0.05 0.00 82 1006.7
20200401082006 54 333 10.0 18.0 0.00 0.05 0.00 82 1006.6
20200401081508 54 319 8.0 18.0 0.00 0.05 0.00 82 1006.6
20200401081008 54 322 8.0 17.0 0.00 0.05 0.00 82 1006.6
20200401080507 54 327 10.0 20.0 0.00 0.05 0.00 82 1006.6
20200401080005 54 346 11.0 21.0 0.00 0.05 0.00 82 1006.6
20200401075505 54 323 11.0 22.0 0.00 0.05 0.00 82 1006.5
20200401074959 54 331 11.0 22.0 0.00 0.05 0.00 82 1006.6
20200401074501 54 306 11.0 24.0 0.00 0.05 0.00 82 1006.5
20200401073958 54 317 10.0 24.0 0.00 0.05 0.00 82 1006.4
20200401073501 54 306 11.0 19.0 0.00 0.05 0.00 82 1006.2
20200401072959 55 298 12.0 22.0 0.00 0.05 0.00 82 1006.3
20200401072500 55 315 11.0 22.0 0.00 0.05 0.00 82 1006.1
20200401071958 55 341 10.0 18.0 0.00 0.05 0.00 82 1006.0
20200401071459 55 286 10.0 17.0 0.00 0.05 0.00 82 1006.0
20200401070957 55 329 10.0 18.0 0.00 0.05 0.00 82 1006.0
20200401065957 55 310 12.0 20.0 0.00 0.05 0.00 82 1005.9